This demonstration page uses our WeatherBlox Daily Observations layout. Learn more.

Left ArrowRight Arrow

38.20091, -84.87328

Hourly Observations for July 29, 2019

Temp ( °F °C ) Dew Point ( °F °C ) Humidity (%) Winds ( mph kmh ) Pressure ( in mb ) Visibility ( mi km ) Precip ( " mm )
12:53 am 00:53 Clear 73 22.8 66 18.9 79 79 SW 3 6 30.07 1018 10 16 0.00 0.00
1:53 am 01:53 Clear 73 22.8 66 18.9 79 79 Calm 30.06 1018 8 13 0.00 0.00
2:53 am 02:53 Clear 71 21.7 66 18.9 84 84 Calm 30.05 1018 8 13 0.00 0.00
3:53 am 03:53 Clear 70 21.1 66 18.9 87 87 SSW 3 6 30.05 1018 7 11 0.00 0.00
4:53 am 04:53 Clear 69 20.6 65 18.3 87 87 SSW 3 6 30.04 1017 7 11 0.00 0.00
5:53 am 05:53 Hazy 69 20.6 64 17.8 84 84 S 5 7 30.04 1017 6 10 0.00 0.00
6:53 am 06:53 Sunny with Mist and Fog 69 20.6 65 18.3 87 87 S 3 6 30.04 1017 5 8 0.00 0.00
7:53 am 07:53 Hazy 72 22.2 67 19.4 84 84 SSW 5 7 30.04 1017 5 8 0.00 0.00
8:53 am 08:53 Hazy 77 25 68 20 74 74 SW 7 11 30.05 1018 4 6 0.00 0.00
9:53 am 09:53 Hazy 81 27.2 69 20.6 67 67 SW 10 17 30.05 1018 4 6 0.00 0.00
10:53 am 10:53 Hazy 84 28.9 68 20 59 59 SW 10 17 30.04 1017 4 6 0.00 0.00
11:23 am 11:23 Hazy 86 30 67 19.4 53 53 SW 9 15 30.01 1016 2 3 0.00 0.00
11:53 am 11:53 Hazy 87 30.6 67 19.4 51 51 S 12 19 30.03 1017 3 4 0.00 0.00
12:53 pm 12:53 Hazy 88 31.1 67 19.4 50 50 SSW 13 20 30.01 1016 3 4 0.00 0.00
1:02 pm 13:02 Mostly Cloudy with Haze 88 31.1 67 19.4 50 50 SW 12 19 30.00 1016 3 5 0.00 0.00
1:10 pm 13:10 Mostly Cloudy with Haze 87 30.6 66 18.9 50 50 SW 12 19 29.99 1016 3 4 0.00 0.00
1:17 pm 13:17 Partly Cloudy 87 30.6 65 18.3 48 48 SW 14 22 29.99 1016 10 16 0.00 0.00
1:53 pm 13:53 Mostly Sunny 89 31.7 66 18.9 47 47 SW 13 20 29.99 1016 10 16 0.00 0.00
2:53 pm 14:53 Mostly Sunny 89 31.7 63 17.2 42 42 WSW 13 20 29.98 1015 10 16 0.00 0.00
3:53 pm 15:53 Mostly Sunny 89 31.7 63 17.2 42 42 SSW 16 26 29.96 1015 10 16 0.00 0.00
4:53 pm 16:53 Sunny 89 31.7 63 17.2 42 42 SW 14 22 29.94 1014 10 16 0.00 0.00
5:53 pm 17:53 Sunny 87 30.6 64 17.8 46 46 SW 13 20 29.94 1014 10 16 0.00 0.00
6:53 pm 18:53 Sunny 88 31.1 65 18.3 46 46 SW 10 17 29.94 1014 10 16 0.00 0.00
7:53 pm 19:53 Sunny 85 29.4 65 18.3 51 51 SW 8 13 29.94 1014 10 16 0.00 0.00
8:53 pm 20:53 Mostly Clear 78 25.6 66 18.9 67 67 WNW 7 11 29.95 1014 10 16 0.00 0.00
9:53 pm 21:53 Clear 76 24.4 66 18.9 72 72 Calm 29.95 1014 10 16 0.00 0.00
10:53 pm 22:53 Mostly Clear 74 23.3 67 19.4 79 79 NNW 3 6 29.98 1015 10 16 0.00 0.00
11:53 pm 23:53 Partly Cloudy 74 23.3 68 20 82 82 Calm 29.97 1015 9 14 0.00 0.00

Powered by AerisWeather